Weather in Lyakhi

Russia / Vladimir Oblast     55°19′55″N   41°55′31″E
temp.,
°C
wind,
m/s
gust,
m/s
humid.,
%
clouds,
%
prec.,
mm/h
press.,
hPa
HPBL,
m
27 february, sat
sat2700:00+1w6139099 0.0 998783
03:00+1w6129699 0.1 997709
06:00+1w51198100 0.7 997528
09:00−9nw71291100 3.1 1000689
12:00−9n71089100 0.3 1004716
15:00−9n61088100 0.3 1008732
18:00−11n4992100 0.1 1010439
21:00−14nnw3696100 0.1 1012112
28 february, sun
sun2800:00−15nnw339788 0.0 101269
03:00−16nnw239786 0.1 101449
06:00−16nnw239777 0.0 101532
09:00−13nnw249482 0.1 1015254
12:00−10nnw348999 0.1 1015491
15:00−8n3488100 0.1 1016574
18:00−11nne119599 0.1 101721
21:00−12nne1297100 0.1 101921
1 march, mon
mon100:00−14nne119899 0.1 102020
03:00−15wnw119894 0.1 102220
06:00−15wnw129773 0.0 102320
09:00−11wsw119676 0.1 102477
12:00−5wsw238985 0.0 1023405
15:00−3sw459092 0.1 1022540
18:00−3sw499499 0.1 1020495
21:00−3sw51094100 0.1 1017474
2 march, tue
tue200:00−1sw61197100 0.6 1013538
03:000wsw61296100 1.5 1010609
06:000w61198100 0.3 1006609
09:000nw71298100 1.1 1006871
12:00+1nw5119898 0.3 1007847
15:00+1nw6119085 0.5 10071042
18:00−1wnw4129098 0.1 1007619
21:00−2nw5129499 0.3 1008670
3 march, wed
wed300:00−3nw5129399 0.1 1009575
03:00−4nw4129497 0.2 1010500
06:00−4nw5129394 0.1 1011516
09:00−4nw6119294 0.2 1013648
12:00−2nnw61088100 0.2 10131037
15:00−2nw6985100 0.3 1014956
18:00−3wnw51193100 0.2 1014562
21:00−3nw41093100 0.3 1016664